• In Hungary
  • List of Countries
  • For 7 days
  • Water Temperature
  • Satellite Maps
  • Weather Map
  • News
  • Weather Widgets
  • user-avatar
    Login

    Hourly Weather Davletkulovo

    Today, 23 September, Sunday

    Time Temperature Precipitation Wind Pressure Humidity
    00:00 +14°C° 0 mm 2 mps 748 mmHg 94%
    01:00 +14°C° 0 mm 2 mps 748 mmHg 95%
    02:00 +14°C° 0 mm 2 mps 748 mmHg 96%
    03:00 +14°C° 0 mm 2 mps 748 mmHg 96%
    04:00 +14°C° 0 mm 2 mps 748 mmHg 96%
    05:00 +14°C° 0.2 mm 2 mps 748 mmHg 97%
    06:00 +14°C° 0.2 mm 1 mps 748 mmHg 97%
    07:00 +14°C° 0.2 mm 1 mps 748 mmHg 97%
    08:00 +15°C° 0 mm 1 mps 748 mmHg 94%
    09:00 +16°C° 0 mm 1 mps 748 mmHg 91%
    10:00 +19°C° 0 mm 1 mps 748 mmHg 86%
    11:00 +20°C° 0 mm 1 mps 748 mmHg 82%
    12:00 +20°C° 0 mm 1 mps 748 mmHg 78%
    13:00 +21°C° 0 mm 1 mps 748 mmHg 74%
    14:00 +21°C° 0 mm 1 mps 748 mmHg 74%
    15:00 +22°C° 0 mm 1 mps 748 mmHg 73%
    16:00 +22°C° 0 mm 1 mps 748 mmHg 72%
    17:00 +20°C° 0 mm 1 mps 748 mmHg 78%
    18:00 +19°C° 0 mm 1 mps 748 mmHg 83%
    19:00 +18°C° 0 mm 1 mps 748 mmHg 88%
    20:00 +16°C° 0 mm 1 mps 748 mmHg 89%
    21:00 +16°C° 0 mm 2 mps 748 mmHg 90%
    22:00 +15°C° 0 mm 2 mps 747 mmHg 91%
    23:00 +15°C° 0 mm 2 mps 747 mmHg 92%

    Tomorrow, 24 September, Monday

    Time Temperature Precipitation Wind Pressure Humidity
    00:00 +15°C° 0 mm 2 mps 747 mmHg 92%
    01:00 +15°C° 0 mm 2 mps 747 mmHg 93%
    02:00 +15°C° 0 mm 2 mps 747 mmHg 93%
    03:00 +14°C° 0 mm 2 mps 747 mmHg 93%
    04:00 +14°C° 0 mm 2 mps 747 mmHg 93%
    05:00 +14°C° 0 mm 2 mps 747 mmHg 92%
    06:00 +15°C° 0 mm 2 mps 747 mmHg 91%
    07:00 +15°C° 0 mm 2 mps 747 mmHg 91%
    08:00 +16°C° 0 mm 3 mps 747 mmHg 82%
    09:00 +18°C° 0 mm 4 mps 747 mmHg 74%
    10:00 +19°C° 0 mm 5 mps 747 mmHg 66%
    11:00 +20°C° 0 mm 5 mps 747 mmHg 60%
    12:00 +21°C° 0 mm 6 mps 747 mmHg 54%
    13:00 +22°C° 0 mm 6 mps 746 mmHg 49%
    14:00 +22°C° 0 mm 6 mps 746 mmHg 49%
    15:00 +22°C° 0 mm 5 mps 746 mmHg 50%
    16:00 +22°C° 0 mm 4 mps 746 mmHg 51%
    17:00 +21°C° 0 mm 4 mps 746 mmHg 55%
    18:00 +19°C° 0 mm 4 mps 745 mmHg 60%
    19:00 +17°C° 0 mm 3 mps 745 mmHg 64%
    20:00 +17°C° 0 mm 3 mps 745 mmHg 65%
    21:00 +16°C° 0 mm 3 mps 746 mmHg 66%
    22:00 +14°C° 0 mm 3 mps 746 mmHg 67%
    23:00 +14°C° 0 mm 3 mps 746 mmHg 69%

    Day after tomorrow, 25 September, Tuesday

    Time Temperature Precipitation Wind Pressure Humidity
    00:00 +13°C° 0 mm 3 mps 746 mmHg 70%
    01:00 +13°C° 0 mm 3 mps 746 mmHg 72%
    02:00 +13°C° 0 mm 3 mps 746 mmHg 73%
    03:00 +12°C° 0 mm 3 mps 746 mmHg 74%
    04:00 +12°C° 0 mm 3 mps 746 mmHg 75%
    05:00 +12°C° 0 mm 4 mps 746 mmHg 73%
    06:00 +12°C° 0 mm 4 mps 746 mmHg 72%
    07:00 +13°C° 0 mm 4 mps 745 mmHg 70%
    08:00 +15°C° 0 mm 5 mps 745 mmHg 64%
    09:00 +16°C° 0 mm 6 mps 745 mmHg 57%
    10:00 +18°C° 0 mm 7 mps 745 mmHg 51%
    11:00 +20°C° 0 mm 7 mps 745 mmHg 48%
    12:00 +22°C° 0 mm 8 mps 745 mmHg 45%
    13:00 +23°C° 0 mm 8 mps 745 mmHg 42%
    14:00 +23°C° 0 mm 7 mps 745 mmHg 44%
    15:00 +23°C° 0 mm 6 mps 745 mmHg 46%
    16:00 +22°C° 0 mm 5 mps 745 mmHg 48%
    17:00 +21°C° 0 mm 4 mps 745 mmHg 51%
    18:00 +19°C° 0 mm 4 mps 745 mmHg 55%
    19:00 +17°C° 0 mm 3 mps 745 mmHg 58%
    20:00 +17°C° 0 mm 3 mps 745 mmHg 58%
    21:00 +16°C° 0 mm 3 mps 745 mmHg 57%
    22:00 +14°C° 0 mm 3 mps 745 mmHg 57%
    23:00 +14°C° 0 mm 3 mps 745 mmHg 57%

    26 September, Wednesday

    Time Temperature Precipitation Wind Pressure Humidity
    00:00 +14°C° 0 mm 4 mps 745 mmHg 57%
    01:00 +14°C° 0 mm 4 mps 745 mmHg 57%
    02:00 +14°C° 0 mm 4 mps 745 mmHg 57%
    03:00 +14°C° 0 mm 4 mps 745 mmHg 57%
    04:00 +14°C° 0 mm 4 mps 745 mmHg 56%
    05:00 +14°C° 0 mm 4 mps 746 mmHg 57%
    06:00 +14°C° 0 mm 4 mps 746 mmHg 58%
    07:00 +14°C° 0 mm 4 mps 746 mmHg 59%
    08:00 +14°C° 0.1 mm 4 mps 746 mmHg 62%
    09:00 +14°C° 0.1 mm 4 mps 746 mmHg 65%
    10:00 +14°C° 0.1 mm 4 mps 747 mmHg 69%
    11:00 +14°C° 0.3 mm 4 mps 747 mmHg 72%
    12:00 +14°C° 0.3 mm 4 mps 747 mmHg 76%
    13:00 +14°C° 0.3 mm 4 mps 747 mmHg 79%
    14:00 +14°C° 0.2 mm 3 mps 748 mmHg 79%
    15:00 +14°C° 0.2 mm 3 mps 748 mmHg 78%
    16:00 +16°C° 0.2 mm 3 mps 748 mmHg 78%
    17:00 +15°C° 0.2 mm 2 mps 748 mmHg 82%
    18:00 +14°C° 0.2 mm 2 mps 748 mmHg 86%
    19:00 +13°C° 0.2 mm 2 mps 749 mmHg 89%
    20:00 +12°C° 0.6 mm 2 mps 749 mmHg 91%
    21:00 +12°C° 0.6 mm 2 mps 749 mmHg 92%
    22:00 +12°C° 0.6 mm 2 mps 749 mmHg 93%
    23:00 +10°C° 0.4 mm 2 mps 749 mmHg 92%

    27 September, Thursday

    Time Temperature Precipitation Wind Pressure Humidity
    00:00 +10°C° 0.4 mm 2 mps 749 mmHg 92%
    01:00 +10°C° 0.4 mm 2 mps 749 mmHg 92%
    02:00 +10°C° 0.3 mm 2 mps 749 mmHg 92%
    03:00 +9°C° 0.3 mm 2 mps 749 mmHg 92%
    04:00 +9°C° 0.3 mm 2 mps 749 mmHg 92%
    05:00 +9°C° 0.7 mm 2 mps 749 mmHg 92%
    06:00 +9°C° 0.7 mm 2 mps 749 mmHg 92%
    07:00 +9°C° 0.7 mm 2 mps 749 mmHg 92%
    08:00 +10°C° 0.5 mm 1 mps 749 mmHg 92%
    09:00 +10°C° 0.5 mm 1 mps 749 mmHg 91%
    10:00 +10°C° 0.5 mm 1 mps 749 mmHg 91%
    11:00 +10°C° 0.8 mm 1 mps 749 mmHg 90%
    12:00 +9°C° 0.8 mm 2 mps 749 mmHg 89%
    13:00 +9°C° 0.8 mm 2 mps 748 mmHg 88%
    14:00 +9°C° 1 mm 2 mps 748 mmHg 89%
    15:00 +8°C° 1 mm 2 mps 748 mmHg 90%
    16:00 +8°C° 1 mm 2 mps 748 mmHg 92%
    17:00 +8°C° 0.2 mm 2 mps 748 mmHg 93%
    18:00 +7°C° 0.2 mm 2 mps 748 mmHg 94%
    19:00 +6°C° 0.2 mm 2 mps 748 mmHg 95%
    20:00 +5°C° 0 mm 3 mps 748 mmHg 94%
    21:00 +5°C° 0 mm 3 mps 748 mmHg 94%
    22:00 +4°C° 0 mm 3 mps 748 mmHg 94%
    23:00 +4°C° 0 mm 3 mps 748 mmHg 94%

    28 September, Friday

    Time Temperature Precipitation Wind Pressure Humidity
    00:00 +5°C° 0 mm 3 mps 747 mmHg 93%
    01:00 +5°C° 0 mm 4 mps 747 mmHg 93%
    02:00 +5°C° 0 mm 4 mps 747 mmHg 92%
    03:00 +5°C° 0 mm 4 mps 747 mmHg 91%
    04:00 +5°C° 0 mm 4 mps 746 mmHg 90%
    05:00 +5°C° 0 mm 5 mps 746 mmHg 88%
    06:00 +5°C° 0 mm 5 mps 746 mmHg 87%
    07:00 +5°C° 0 mm 5 mps 746 mmHg 85%
    08:00 +6°C° 0 mm 5 mps 746 mmHg 80%
    09:00 +7°C° 0 mm 6 mps 746 mmHg 74%
    10:00 +8°C° 0 mm 6 mps 746 mmHg 69%
    11:00 +9°C° 0 mm 6 mps 746 mmHg 66%
    12:00 +10°C° 0 mm 6 mps 746 mmHg 63%
    13:00 +11°C° 0 mm 6 mps 746 mmHg 59%
    14:00 +11°C° 0 mm 6 mps 746 mmHg 60%
    15:00 +12°C° 0 mm 5 mps 746 mmHg 60%
    16:00 +13°C° 0 mm 5 mps 746 mmHg 60%
    17:00 +11°C° 0 mm 4 mps 746 mmHg 66%
    18:00 +10°C° 0 mm 4 mps 746 mmHg 71%
    19:00 +9°C° 0 mm 3 mps 746 mmHg 76%
    20:00 +9°C° 0 mm 3 mps 746 mmHg 76%
    21:00 +8°C° 0 mm 4 mps 746 mmHg 76%
    22:00 +7°C° 0 mm 4 mps 746 mmHg 76%
    23:00 +7°C° 0 mm 5 mps 746 mmHg 75%
    Show more